Weather in Bolshaya Fedorovka

Russia / Saratov Oblast     51°50′50″N   45°30′09″E
temp.,
°C
wind,
m/s
gust,
m/s
humid.,
%
clouds,
%
prec.,
mm/h
press.,
hPa
HPBL,
m
28 january, thu
thu2801:00−4se61292100 0.0 1018424
04:00−5se61395100 0.0 1017360
07:00−6ese71397100 0.0 1015358
10:00−7se71297100 0.1 1014382
13:00−4se71197100 0.1 1013513
16:00−4se71095100 0.1 1012528
19:00−4se61195100 0.1 1012550
22:00−4se5997100 0.1 1011373
29 january, fri
fri2901:00−5ese4798100 0.1 1011229
04:00−5se3697100 0.1 1010220
07:00−7ese239791 0.0 100928
10:00−4s239683 0.0 1009118
13:00−1s2496100 0.0 1009274
16:00−1sw3694100 0.0 1009375
19:00−3ssw3692100 0.0 1009130
22:00−4ssw4991100 0.0 1009190
30 january, sat
sat3001:00−4ssw512923 0.0 1008249
04:00−4s5129331 0.0 1008326
07:00−2s71393100 0.1 1006540
10:000s101796100 0.8 10041061
13:000sw111699100 1.4 1005995
16:00−2sw499098 1.8 1008396
19:00−6ssw349394 0.0 100946
22:00−5ssw239597 0.0 101032
31 january, sun
sun3101:00+1ssw613100100 0.7 1009535
04:000s61289100 0.8 1009468
07:00−2s61386100 0.0 1007399
10:00−2sse81878100 0.0 1007500
13:00−1sse102078100 0.0 1005728
16:00−1s111896100 0.9 1002980
19:00+2ssw102098100 1.3 1000878
22:00−2wsw10178494 2.2 1003880
1 february, mon
mon101:00−3wsw9158999 0.1 1008911
04:00−6wsw6149199 0.1 1012488
07:00−9wsw499572 0.0 1015182
10:00−9wsw479564 0.0 1018131
13:00−5sw4792100 0.0 1019260
16:00−4sse3592100 0.0 1019260
19:00−4se51092100 0.0 1018251
22:00−3se71588100 0.1 1016389